Location: Charbonni�res
(45.9952°N, 2.9982°E)
Time: 18:32:46
(UTC+00:00)

Lacrosse 5 - Pass Details

Date: 29 November 2020
Orbit: 713 x 726 km, 57.0° (Epoch: 18 January)

Event Time Altitude Azimuth Distance (km) Brightness Sun altitude
Exits shadow 06:11:22 11° 273° (W) 2,135 3.7 -9.6°
Maximum altitude 06:15:47 34° 338° (NNW) 1,173 2.6 -8.9°
Drops below altitude 10° 06:20:23 10° 43° (NE) 2,199 4.7 -8.1°
Sets 06:22:58 0° 53° (NE) 3,122 5.6 -7.7°
